Simultaneous Nadir Overpasses (SNOs) Predictions

Prediction of SNOs between LANDSAT-8 and NOAA-19 Satellite Orbit:

Table of predicted SNOs for the next 14.0 days since TLE Epoch: 12/31/2021
Index Date (LANDSAT-8) Time (LANDSAT-8) Lat,Lon (LANDSAT-8) SZA (LANDSAT-8 ) Date (NOAA-19) Time (NOAA-19) Lat,Lon (NOAA-19) SZA (NOAA-19 ) Distance(km) Time Diff (sec)
1 01/02/2022 06:17:48 80.65, 119.31 104.93 01/02/2022 06:17:34 80.65, 119.29 104.92 0.34 14
2 01/04/2022 11:51:32 -80.67,-143.95 75.29 01/04/2022 11:50:40 -80.66,-144.09 75.33 2.78 52
3 01/04/2022 12:40:59 80.64, 23.39 104.66 01/04/2022 12:41:38 80.65, 23.26 104.68 2.79 39
4 01/06/2022 18:14:43 -80.66, 120.13 75.59 01/06/2022 18:14:43 -80.66, 120.02 75.60 2.08 0
5 01/08/2022 23:48:26 80.67,-143.13 104.13 01/08/2022 23:47:45 80.65,-143.08 104.10 2.37 41
6 01/09/2022 00:37:54 -80.65, 24.20 75.93 01/09/2022 00:38:46 -80.66, 24.10 75.91 2.21 52
7 01/11/2022 06:11:37 80.66, 120.91 103.75 01/11/2022 06:11:49 80.66, 120.82 103.75 1.65 12
8 01/13/2022 11:45:21 -80.67,-142.35 76.61 01/13/2022 11:44:52 -80.66,-142.37 76.64 1.50 29



Historial Predications of SNOs between LANDSAT-8 and NOAA-19
